EW1175 Weather Reports


time (UTC)temp
C
wind
direction
speed
KPH
gust
KPH
rain 1hr
cm
rain 24hr
cm
rain mn
cm
humidity
%
barometer
mb
20260505041548 18 129 0.0 0.0 0.00 0.00 0.00 59 1010.7
20260505040044 19 129 0.0 0.0 0.00 0.00 0.00 59 1010.5
20260505034543 20 130 0.0 0.0 0.00 0.00 0.00 54 1010.4
20260505033044 20 129 0.0 0.0 0.00 0.00 0.00 51 1010.2
20260505031554 20 130 0.0 0.0 0.00 0.00 0.00 50 1010.2
20260505030045 21 130 0.0 0.0 0.00 0.00 0.00 48 1010.2
20260505024548 21 129 0.0 0.0 0.00 0.00 0.00 49 1010.0
20260505023045 22 129 0.0 0.0 0.00 0.00 0.00 46 1010.0
20260505021539 22 130 0.0 0.0 0.00 0.00 0.00 46 1010.1
20260505020038 22 129 0.0 0.0 0.00 0.00 0.00 45 1010.1
20260505014558 23 130 0.0 1.6 0.00 0.00 0.00 44 1010.1
20260505013036 23 124 0.0 1.6 0.00 0.00 0.00 44 1010.2
20260505011545 23 127 0.0 0.0 0.00 0.00 0.00 44 1010.2
20260505010035 24 130 0.0 0.0 0.00 0.00 0.00 44 1010.3
20260505004534 25 135 0.0 1.6 0.00 0.00 0.00 43 1010.4
20260505003033 25 122 0.0 1.6 0.00 0.00 0.00 43 1010.3
20260505001539 25 163 0.0 3.2 0.00 0.00 0.00 41 1010.2
20260505000032 26 120 0.0 1.6 0.00 0.00 0.00 39 1010.2
20260504234531 26 113 0.0 3.2 0.00 0.00 0.00 36 1010.3
20260504233028 27 79 0.0 3.2 0.00 0.00 0.00 34 1010.5
20260504231527 27 96 0.0 1.6 0.00 0.00 0.00 33 1010.5
20260504230025 28 57 0.0 4.8 0.00 0.00 0.00 33 1010.6
20260504224533 28 111 0.0 4.8 0.00 0.00 0.00 31 1010.7
20260504223023 30 120 0.0 3.2 0.00 0.00 0.00 31 1010.8
20260504221523 30 121 0.0 1.6 0.00 0.00 0.00 29 1010.8
20260504220021 30 132 0.0 4.8 0.00 0.00 0.00 30 1010.9
20260504214524 30 28 0.0 4.8 0.00 0.00 0.00 29 1011.0
20260504213020 29 112 0.0 3.2 0.00 0.00 0.00 32 1011.1
20260504211517 28 74 0.0 3.2 0.00 0.00 0.00 33 1011.2
20260504210027 28 115 0.0 3.2 0.00 0.00 0.00 32 1011.3
20260504204526 28 124 0.0 1.6 0.00 0.00 0.00 34 1011.5
20260504203009 27 142 0.0 3.2 0.00 0.00 0.00 38 1011.5
20260504201508 27 122 0.0 3.2 0.00 0.00 0.00 41 1011.6
20260504200005 27 115 0.0 3.2 0.00 0.00 0.00 38 1011.7
20260504194505 26 101 0.0 1.6 0.00 0.00 0.00 39 1011.8
20260504193005 26 117 0.0 3.2 0.00 0.00 0.00 38 1011.8
20260504191604 26 103 0.0 4.8 0.00 0.00 0.00 41 1011.9
20260504190057 25 143 0.0 1.6 0.00 0.00 0.00 46 1012.0
20260504184556 24 126 0.0 1.6 0.00 0.00 0.00 47 1012.0
20260504183058 24 138 0.0 3.2 0.00 0.00 0.00 46 1012.0
20260504181553 24 114 0.0 1.6 0.00 0.00 0.00 47 1012.0
20260504180106 23 140 0.0 1.6 0.00 0.00 0.00 48 1012.1
20260504174551 23 142 0.0 4.8 0.00 0.00 0.00 47 1012.1
20260504173105 23 129 0.0 1.6 0.00 0.00 0.00 44 1012.1
20260504171556 24 133 0.0 0.0 0.00 0.00 0.00 44 1012.2
20260504081559 16 176 0.0 1.6 0.00 0.00 0.00 58 1011.2